Year,Month,Day,Hour,Minute,Value (Times are PST for barometer in hPa)
2024,03,02,00,00,992.52
2024,03,02,00,01,992.52
2024,03,02,00,02,992.52
2024,03,02,00,03,992.58
2024,03,02,00,04,992.55
2024,03,02,00,05,992.58
2024,03,02,00,06,992.55
2024,03,02,00,07,992.48
2024,03,02,00,08,992.45
2024,03,02,00,09,992.45
2024,03,02,00,10,992.42
2024,03,02,00,11,992.38
2024,03,02,00,12,992.35
2024,03,02,00,13,992.42
2024,03,02,00,14,992.42
2024,03,02,00,15,992.42
2024,03,02,00,16,992.42
2024,03,02,00,17,992.42
2024,03,02,00,18,992.42
2024,03,02,00,19,992.42
2024,03,02,00,20,992.38
2024,03,02,00,21,992.35
2024,03,02,00,22,992.35
2024,03,02,00,23,992.31
2024,03,02,00,24,992.35
2024,03,02,00,25,992.28
2024,03,02,00,26,992.21
2024,03,02,00,27,992.25
2024,03,02,00,28,992.21
2024,03,02,00,29,992.21
2024,03,02,00,30,992.21
2024,03,02,00,31,992.28
2024,03,02,00,32,992.38
2024,03,02,00,33,992.31
2024,03,02,00,34,992.28
2024,03,02,00,35,992.28
2024,03,02,00,36,992.25
2024,03,02,00,37,992.25
2024,03,02,00,38,992.18
2024,03,02,00,39,992.18
2024,03,02,00,40,992.21
2024,03,02,00,41,992.25
2024,03,02,00,42,992.25
2024,03,02,00,43,992.21
2024,03,02,00,44,992.25
2024,03,02,00,45,992.18
2024,03,02,00,46,992.18
2024,03,02,00,47,992.25
2024,03,02,00,48,992.28
2024,03,02,00,49,992.25
2024,03,02,00,50,992.28
2024,03,02,00,51,992.21
2024,03,02,00,52,992.08
2024,03,02,00,53,992.11
2024,03,02,00,54,992.04
2024,03,02,00,55,992.08
2024,03,02,00,56,992.01
2024,03,02,00,57,992.01
2024,03,02,00,58,992.01
2024,03,02,00,59,992.04
2024,03,02,01,00,992.01
2024,03,02,01,01,992.01
2024,03,02,01,02,992.08
2024,03,02,01,03,991.98
2024,03,02,01,04,991.91
2024,03,02,01,05,991.94
2024,03,02,01,06,991.91
2024,03,02,01,07,991.91
2024,03,02,01,08,991.91
2024,03,02,01,09,991.84
2024,03,02,01,10,991.87
2024,03,02,01,11,991.87
2024,03,02,01,12,991.84
2024,03,02,01,13,991.84
2024,03,02,01,14,991.84
2024,03,02,01,15,991.77
2024,03,02,01,16,991.81
2024,03,02,01,17,991.77
2024,03,02,01,18,991.74
2024,03,02,01,19,991.70
2024,03,02,01,20,991.70
2024,03,02,01,21,991.67
2024,03,02,01,22,991.77
2024,03,02,01,23,991.64
2024,03,02,01,24,991.67
2024,03,02,01,25,991.60
2024,03,02,01,26,991.67
2024,03,02,01,27,991.64
2024,03,02,01,28,991.67
2024,03,02,01,29,991.67
2024,03,02,01,30,991.67
2024,03,02,01,31,991.64
2024,03,02,01,32,991.70
2024,03,02,01,33,991.67
2024,03,02,01,34,991.67
2024,03,02,01,35,991.70
2024,03,02,01,36,991.77
2024,03,02,01,37,991.67
2024,03,02,01,38,991.67
2024,03,02,01,39,991.64
2024,03,02,01,40,991.60
2024,03,02,01,41,991.64
2024,03,02,01,42,991.53
2024,03,02,01,43,991.47
2024,03,02,01,44,991.48
2024,03,02,01,45,991.64
2024,03,02,01,46,991.50
2024,03,02,01,47,991.50
2024,03,02,01,48,991.43
2024,03,02,01,49,991.40
2024,03,02,01,50,991.40
2024,03,02,01,51,991.47
2024,03,02,01,52,991.43
2024,03,02,01,53,991.47
2024,03,02,01,54,991.40
2024,03,02,01,55,991.40
2024,03,02,01,56,991.30
2024,03,02,01,57,991.33
2024,03,02,01,58,991.26
2024,03,02,01,59,991.23
2024,03,02,02,00,991.20
2024,03,02,02,01,991.23
2024,03,02,02,02,991.23
2024,03,02,02,03,991.20
2024,03,02,02,04,991.20
2024,03,02,02,05,991.23
2024,03,02,02,06,991.26
2024,03,02,02,07,991.23
2024,03,02,02,08,991.23
2024,03,02,02,09,991.16
2024,03,02,02,10,991.23
2024,03,02,02,11,991.23
2024,03,02,02,12,991.20
2024,03,02,02,13,991.16
2024,03,02,02,14,991.13
2024,03,02,02,15,991.13
2024,03,02,02,16,991.06
2024,03,02,02,17,991.06
2024,03,02,02,18,991.13
2024,03,02,02,19,991.03
2024,03,02,02,20,991.03
2024,03,02,02,21,991.03
2024,03,02,02,22,990.96
2024,03,02,02,23,990.96
2024,03,02,02,24,990.96
2024,03,02,02,25,990.89
2024,03,02,02,26,990.93
2024,03,02,02,27,990.93
2024,03,02,02,28,990.82
2024,03,02,02,29,990.86
2024,03,02,02,30,990.89
2024,03,02,02,31,990.99
2024,03,02,02,32,990.96
2024,03,02,02,33,990.96
2024,03,02,02,34,990.93
2024,03,02,02,35,990.99
2024,03,02,02,36,991.03
2024,03,02,02,37,990.99
2024,03,02,02,38,990.93
2024,03,02,02,39,990.93
2024,03,02,02,40,990.96
2024,03,02,02,41,990.99
2024,03,02,02,42,990.96
2024,03,02,02,43,991.03
2024,03,02,02,44,991.03
2024,03,02,02,45,990.96
2024,03,02,02,46,991.03
2024,03,02,02,47,990.96
2024,03,02,02,48,990.93
2024,03,02,02,49,991.03
2024,03,02,02,50,990.96
2024,03,02,02,51,990.99
2024,03,02,02,52,991.13
2024,03,02,02,53,991.03
2024,03,02,02,54,990.99
2024,03,02,02,55,990.96
2024,03,02,02,56,991.03
2024,03,02,02,57,990.96
2024,03,02,02,58,990.99
2024,03,02,02,59,990.93
2024,03,02,03,00,990.96
2024,03,02,03,01,990.86
2024,03,02,03,02,990.86
2024,03,02,03,03,990.82
2024,03,02,03,04,990.89
2024,03,02,03,05,990.86
2024,03,02,03,06,990.82
2024,03,02,03,07,990.89
2024,03,02,03,08,990.89
2024,03,02,03,09,990.89
2024,03,02,03,10,990.79
2024,03,02,03,11,990.79
2024,03,02,03,12,990.76
2024,03,02,03,13,990.79
2024,03,02,03,14,990.72
2024,03,02,03,15,990.76
2024,03,02,03,16,990.79
2024,03,02,03,17,990.82
2024,03,02,03,18,990.79
2024,03,02,03,19,990.82
2024,03,02,03,20,990.79
2024,03,02,03,21,990.72
2024,03,02,03,22,990.79
2024,03,02,03,23,990.82
2024,03,02,03,24,990.79
2024,03,02,03,25,990.79
2024,03,02,03,26,990.72
2024,03,02,03,27,990.65
2024,03,02,03,28,990.69
2024,03,02,03,29,990.72
2024,03,02,03,30,990.65
2024,03,02,03,31,990.65
2024,03,02,03,32,990.65
2024,03,02,03,33,990.59
2024,03,02,03,34,990.62
2024,03,02,03,35,990.69
2024,03,02,03,36,990.69
2024,03,02,03,37,990.69
2024,03,02,03,38,990.65
2024,03,02,03,39,990.69
2024,03,02,03,40,990.72
2024,03,02,03,41,990.76
2024,03,02,03,42,990.76
2024,03,02,03,43,990.76
2024,03,02,03,44,990.72
2024,03,02,03,45,990.72
2024,03,02,03,46,990.78
2024,03,02,03,47,990.66
2024,03,02,03,48,990.79
2024,03,02,03,49,990.76
2024,03,02,03,50,990.86
2024,03,02,03,51,990.86
2024,03,02,03,52,990.86
2024,03,02,03,53,990.89
2024,03,02,03,54,990.89
2024,03,02,03,55,990.86
2024,03,02,03,56,990.82
2024,03,02,03,57,990.86
2024,03,02,03,58,990.82
2024,03,02,03,59,990.76
2024,03,02,04,00,990.76
2024,03,02,04,01,990.76
2024,03,02,04,02,990.79
2024,03,02,04,03,990.72
2024,03,02,04,04,990.82
2024,03,02,04,05,990.79
2024,03,02,04,06,990.86
2024,03,02,04,07,990.82
2024,03,02,04,08,990.86
2024,03,02,04,09,990.89
2024,03,02,04,10,990.89
2024,03,02,04,11,990.93
2024,03,02,04,12,990.86
2024,03,02,04,13,990.79
2024,03,02,04,14,990.86
2024,03,02,04,15,990.79
2024,03,02,04,16,990.76
2024,03,02,04,17,990.86
2024,03,02,04,18,990.82
2024,03,02,04,19,990.86
2024,03,02,04,20,990.79
2024,03,02,04,21,990.79
2024,03,02,04,22,990.79
2024,03,02,04,23,990.79
2024,03,02,04,24,990.79
2024,03,02,04,25,990.79
2024,03,02,04,26,990.86
2024,03,02,04,27,990.79
2024,03,02,04,28,990.76
2024,03,02,04,29,990.78
2024,03,02,04,30,990.65
2024,03,02,04,31,990.65
2024,03,02,04,32,990.76
2024,03,02,04,33,990.76
2024,03,02,04,34,990.72
2024,03,02,04,35,990.86
2024,03,02,04,36,990.79
2024,03,02,04,37,990.86
2024,03,02,04,38,990.86
2024,03,02,04,39,990.79
2024,03,02,04,40,990.79
2024,03,02,04,41,990.89
2024,03,02,04,42,990.86
2024,03,02,04,43,990.86
2024,03,02,04,44,990.86
2024,03,02,04,45,990.82
2024,03,02,04,46,990.72
2024,03,02,04,47,990.69
2024,03,02,04,48,990.62
2024,03,02,04,49,990.62
2024,03,02,04,50,990.59
2024,03,02,04,51,990.62
2024,03,02,04,52,990.55
2024,03,02,04,53,990.76
2024,03,02,04,54,990.76
2024,03,02,04,55,990.79
2024,03,02,04,56,990.86
2024,03,02,04,57,990.82
2024,03,02,04,58,990.82
2024,03,02,04,59,990.86
2024,03,02,05,00,990.89
2024,03,02,05,01,990.82
2024,03,02,05,02,990.82
2024,03,02,05,03,990.79
2024,03,02,05,04,990.72
2024,03,02,05,05,990.76
2024,03,02,05,06,990.76
2024,03,02,05,07,990.79
2024,03,02,05,08,990.82
2024,03,02,05,09,990.82
2024,03,02,05,10,990.79
2024,03,02,05,11,990.79
2024,03,02,05,12,990.79
2024,03,02,05,13,990.82
2024,03,02,05,14,990.93
2024,03,02,05,15,990.89
2024,03,02,05,16,990.86
2024,03,02,05,17,990.86
2024,03,02,05,18,990.96
2024,03,02,05,19,990.96
2024,03,02,05,20,990.96
2024,03,02,05,21,990.86
2024,03,02,05,22,990.86
2024,03,02,05,23,990.89
2024,03,02,05,24,990.89
2024,03,02,05,25,990.89
2024,03,02,05,26,990.89
2024,03,02,05,27,990.99
2024,03,02,05,28,990.96
2024,03,02,05,29,990.89
2024,03,02,05,30,990.86
2024,03,02,05,31,990.89
2024,03,02,05,32,990.93
2024,03,02,05,33,990.86
2024,03,02,05,34,990.82
2024,03,02,05,35,990.86
2024,03,02,05,36,990.89
2024,03,02,05,37,990.82
2024,03,02,05,38,990.86
2024,03,02,05,39,990.89
2024,03,02,05,40,990.93
2024,03,02,05,41,990.93
2024,03,02,05,42,990.93
2024,03,02,05,43,990.93
2024,03,02,05,44,990.99
2024,03,02,05,45,990.93
2024,03,02,05,46,990.99
2024,03,02,05,47,991.03
2024,03,02,05,48,990.96
2024,03,02,05,49,991.03
2024,03,02,05,50,991.03
2024,03,02,05,51,990.99
2024,03,02,05,52,990.99
2024,03,02,05,53,991.03
2024,03,02,05,54,991.03
2024,03,02,05,55,991.03
2024,03,02,05,56,991.03
2024,03,02,05,57,990.99
2024,03,02,05,58,991.03
2024,03,02,05,59,991.03
2024,03,02,06,00,991.03
2024,03,02,06,01,991.03
2024,03,02,06,02,991.03
2024,03,02,06,03,991.09
2024,03,02,06,04,991.03
2024,03,02,06,05,991.09
2024,03,02,06,06,991.09
2024,03,02,06,07,991.16
2024,03,02,06,08,991.06
2024,03,02,06,09,991.09
2024,03,02,06,10,991.13
2024,03,02,06,11,991.13
2024,03,02,06,12,991.20
2024,03,02,06,13,991.23
2024,03,02,06,14,991.26
2024,03,02,06,15,991.20
2024,03,02,06,16,991.26
2024,03,02,06,17,991.26
2024,03,02,06,18,991.26
2024,03,02,06,19,991.26
2024,03,02,06,20,991.23
2024,03,02,06,21,991.37
2024,03,02,06,22,991.33
2024,03,02,06,23,991.20
2024,03,02,06,24,991.23
2024,03,02,06,25,991.23
2024,03,02,06,26,991.23
2024,03,02,06,27,991.23
2024,03,02,06,28,991.26
2024,03,02,06,29,991.30
2024,03,02,06,30,991.30
2024,03,02,06,31,991.30
2024,03,02,06,32,991.23
2024,03,02,06,33,991.26
2024,03,02,06,34,991.26
2024,03,02,06,35,991.26
2024,03,02,06,36,991.26
2024,03,02,06,37,991.30
2024,03,02,06,38,991.30
2024,03,02,06,39,991.33
2024,03,02,06,40,991.33
2024,03,02,06,41,991.33
2024,03,02,06,42,991.40
2024,03,02,06,43,991.43
2024,03,02,06,44,991.40
2024,03,02,06,45,991.47
2024,03,02,06,46,991.50
2024,03,02,06,47,991.47
2024,03,02,06,48,991.50
2024,03,02,06,49,991.47
2024,03,02,06,50,991.50
2024,03,02,06,51,991.47
2024,03,02,06,52,991.53
2024,03,02,06,53,991.50
2024,03,02,06,54,991.47
2024,03,02,06,55,991.40
2024,03,02,06,56,991.50
2024,03,02,06,57,991.40
2024,03,02,06,58,991.50
2024,03,02,06,59,991.37
2024,03,02,07,00,991.40
2024,03,02,07,01,991.40
2024,03,02,07,02,991.40
2024,03,02,07,03,991.40
2024,03,02,07,04,991.40
2024,03,02,07,05,991.37
2024,03,02,07,06,991.37
2024,03,02,07,07,991.30
2024,03,02,07,08,991.40
2024,03,02,07,09,991.40
2024,03,02,07,10,991.40
2024,03,02,07,11,991.40
2024,03,02,07,12,991.47
2024,03,02,07,13,991.40
2024,03,02,07,14,991.40
2024,03,02,07,15,991.43
2024,03,02,07,16,991.43
2024,03,02,07,17,991.47
2024,03,02,07,18,991.47
2024,03,02,07,19,991.50
2024,03,02,07,20,991.47
2024,03,02,07,21,991.47
2024,03,02,07,22,991.47
2024,03,02,07,23,991.47
2024,03,02,07,24,991.43
2024,03,02,07,25,991.50
2024,03,02,07,26,991.47
2024,03,02,07,27,991.43
2024,03,02,07,28,991.47
2024,03,02,07,29,991.47
2024,03,02,07,30,991.43
2024,03,02,07,31,991.47
2024,03,02,07,32,991.57
2024,03,02,07,33,991.47
2024,03,02,07,34,991.50
2024,03,02,07,35,991.47
2024,03,02,07,36,991.50
2024,03,02,07,37,991.53
2024,03,02,07,38,991.64
2024,03,02,07,39,991.57
2024,03,02,07,40,991.67
2024,03,02,07,41,991.64
2024,03,02,07,42,991.74
2024,03,02,07,43,991.74
2024,03,02,07,44,991.84
2024,03,02,07,45,991.87
2024,03,02,07,46,991.84
2024,03,02,07,47,991.94
2024,03,02,07,48,991.91
2024,03,02,07,49,991.94
2024,03,02,07,50,991.94
2024,03,02,07,51,992.04
2024,03,02,07,52,992.04
2024,03,02,07,53,992.08
2024,03,02,07,54,992.15
2024,03,02,07,55,992.28
2024,03,02,07,56,992.28
2024,03,02,07,57,992.25
2024,03,02,07,58,992.28
2024,03,02,07,59,992.35
2024,03,02,08,00,992.31
2024,03,02,08,01,992.35
2024,03,02,08,02,992.42
2024,03,02,08,03,992.42
2024,03,02,08,04,992.45
2024,03,02,08,05,992.35
2024,03,02,08,06,992.48
2024,03,02,08,07,992.42
2024,03,02,08,08,992.45
2024,03,02,08,09,992.45
2024,03,02,08,10,992.45
2024,03,02,08,11,992.45
2024,03,02,08,12,992.52
2024,03,02,08,13,992.55
2024,03,02,08,14,992.48
2024,03,02,08,15,992.52
2024,03,02,08,16,992.45
2024,03,02,08,17,992.52
2024,03,02,08,18,992.52
2024,03,02,08,19,992.45
2024,03,02,08,20,992.45
2024,03,02,08,21,992.55
2024,03,02,08,22,992.58
2024,03,02,08,23,992.52
2024,03,02,08,24,992.55
2024,03,02,08,25,992.48
2024,03,02,08,26,992.52
2024,03,02,08,27,992.55
2024,03,02,08,28,992.52
2024,03,02,08,29,992.55
2024,03,02,08,30,992.65
2024,03,02,08,31,992.69
2024,03,02,08,32,992.72
2024,03,02,08,33,992.62
2024,03,02,08,34,992.72
2024,03,02,08,35,992.69
2024,03,02,08,36,992.79
2024,03,02,08,37,992.75
2024,03,02,08,38,992.75
2024,03,02,08,39,992.75
2024,03,02,08,40,992.79
2024,03,02,08,41,992.79
2024,03,02,08,42,992.79
2024,03,02,08,43,992.86
2024,03,02,08,44,992.79
2024,03,02,08,45,992.79
2024,03,02,08,46,992.82
2024,03,02,08,47,992.89
2024,03,02,08,48,992.89
2024,03,02,08,49,992.86
2024,03,02,08,50,992.82
2024,03,02,08,51,992.92
2024,03,02,08,52,992.86
2024,03,02,08,53,992.86
2024,03,02,08,54,992.89
2024,03,02,08,55,992.89
2024,03,02,08,56,992.89
2024,03,02,08,57,992.99
2024,03,02,08,58,992.99
2024,03,02,08,59,992.92
2024,03,02,09,00,992.99
2024,03,02,09,01,993.06
2024,03,02,09,02,993.06
2024,03,02,09,03,993.06
2024,03,02,09,04,993.06
2024,03,02,09,05,993.03
2024,03,02,09,06,993.06
2024,03,02,09,07,993.09
2024,03,02,09,08,993.13
2024,03,02,09,09,993.16
2024,03,02,09,10,993.09
2024,03,02,09,11,993.16
2024,03,02,09,12,993.13
2024,03,02,09,13,993.23
2024,03,02,09,14,993.19
2024,03,02,09,15,993.16
2024,03,02,09,16,993.23
2024,03,02,09,17,993.26
2024,03,02,09,18,993.33
2024,03,02,09,19,993.26
2024,03,02,09,20,993.30
2024,03,02,09,21,993.30
2024,03,02,09,22,993.30
2024,03,02,09,23,993.33
2024,03,02,09,24,993.33
2024,03,02,09,25,993.33
2024,03,02,09,26,993.33
2024,03,02,09,27,993.36
2024,03,02,09,28,993.40
2024,03,02,09,29,993.43
2024,03,02,09,30,993.47
2024,03,02,09,31,993.50
2024,03,02,09,32,993.53
2024,03,02,09,33,993.63
2024,03,02,09,34,993.60
2024,03,02,09,35,993.57
2024,03,02,09,36,993.60
2024,03,02,09,37,993.70
2024,03,02,09,38,993.67
2024,03,02,09,39,993.67
2024,03,02,09,40,993.74
2024,03,02,09,41,993.74
2024,03,02,09,42,993.77
2024,03,02,09,43,993.74
2024,03,02,09,44,993.77
2024,03,02,09,45,993.74
2024,03,02,09,46,993.74
2024,03,02,09,47,993.80
2024,03,02,09,48,993.84
2024,03,02,09,49,993.80
2024,03,02,09,50,993.80
2024,03,02,09,51,993.84
2024,03,02,09,52,993.91
2024,03,02,09,53,993.97
2024,03,02,09,54,993.94
2024,03,02,09,55,993.97
2024,03,02,09,56,993.97
2024,03,02,09,57,993.97
2024,03,02,09,58,994.01
2024,03,02,09,59,994.04
2024,03,02,10,00,994.01
2024,03,02,10,01,994.14
2024,03,02,10,02,994.07
2024,03,02,10,03,994.11
2024,03,02,10,04,994.21
2024,03,02,10,05,994.28
2024,03,02,10,06,994.24
2024,03,02,10,07,994.35
2024,03,02,10,08,994.38
2024,03,02,10,09,994.28
2024,03,02,10,10,994.28
2024,03,02,10,11,994.31
2024,03,02,10,12,994.35
2024,03,02,10,13,994.28
2024,03,02,10,14,994.31
2024,03,02,10,15,994.38
2024,03,02,10,16,994.38
2024,03,02,10,17,994.35
2024,03,02,10,18,994.45
2024,03,02,10,19,994.48
2024,03,02,10,20,994.41
2024,03,02,10,21,994.41
2024,03,02,10,22,994.45
2024,03,02,10,23,994.48
2024,03,02,10,24,994.45
2024,03,02,10,25,994.48
2024,03,02,10,26,994.48
2024,03,02,10,27,994.52
2024,03,02,10,28,994.52
2024,03,02,10,29,994.52
2024,03,02,10,30,994.52
2024,03,02,10,31,994.55
2024,03,02,10,32,994.55
2024,03,02,10,33,994.65
2024,03,02,10,34,994.55
2024,03,02,10,35,994.62
2024,03,02,10,36,994.65
2024,03,02,10,37,994.62
2024,03,02,10,38,994.62
2024,03,02,10,39,994.62
2024,03,02,10,40,994.62
2024,03,02,10,41,994.72
2024,03,02,10,42,994.62
2024,03,02,10,43,994.68
2024,03,02,10,44,994.68
2024,03,02,10,45,994.68
2024,03,02,10,46,994.72
2024,03,02,10,47,994.75
2024,03,02,10,48,994.68
2024,03,02,10,49,994.72
2024,03,02,10,50,994.75
2024,03,02,10,51,994.82
2024,03,02,10,52,994.72
2024,03,02,10,53,994.79
2024,03,02,10,54,994.75
2024,03,02,10,55,994.82
2024,03,02,10,56,994.79
2024,03,02,10,57,994.82
2024,03,02,10,58,994.79
2024,03,02,10,59,994.82
2024,03,02,11,00,994.79
2024,03,02,11,01,994.89
2024,03,02,11,02,994.99
2024,03,02,11,03,994.96
2024,03,02,11,04,994.92
2024,03,02,11,05,995.02
2024,03,02,11,06,995.02
2024,03,02,11,07,995.06
2024,03,02,11,08,994.99
2024,03,02,11,09,995.16
2024,03,02,11,10,995.06
2024,03,02,11,11,995.16
2024,03,02,11,12,995.19
2024,03,02,11,13,995.16
2024,03,02,11,14,995.19
2024,03,02,11,15,995.26
2024,03,02,11,16,995.23
2024,03,02,11,17,995.26
2024,03,02,11,18,995.26
2024,03,02,11,19,995.29
2024,03,02,11,20,995.33
2024,03,02,11,21,995.40
2024,03,02,11,22,995.33
2024,03,02,11,23,995.33
2024,03,02,11,24,995.40
2024,03,02,11,25,995.33
2024,03,02,11,26,995.40
2024,03,02,11,27,995.46
2024,03,02,11,28,995.36
2024,03,02,11,29,995.43
2024,03,02,11,30,995.36
2024,03,02,11,31,995.53
2024,03,02,11,32,995.46
2024,03,02,11,33,995.50
2024,03,02,11,34,995.53
2024,03,02,11,35,995.53
2024,03,02,11,36,995.60
2024,03,02,11,37,995.56
2024,03,02,11,38,995.72
2024,03,02,11,39,995.60
2024,03,02,11,40,995.63
2024,03,02,11,41,995.60
2024,03,02,11,42,995.67
2024,03,02,11,43,995.67
2024,03,02,11,44,995.63
2024,03,02,11,45,995.77
2024,03,02,11,46,995.67
2024,03,02,11,47,995.77
2024,03,02,11,48,995.80
2024,03,02,11,49,995.77
2024,03,02,11,50,995.80
2024,03,02,11,51,995.84
2024,03,02,11,52,995.77
2024,03,02,11,53,995.80
2024,03,02,11,54,995.87
2024,03,02,11,55,995.90
2024,03,02,11,56,995.84
2024,03,02,11,57,995.90
2024,03,02,11,58,995.97
2024,03,02,11,59,995.84
2024,03,02,12,00,995.97
2024,03,02,12,01,996.01
2024,03,02,12,02,996.01
2024,03,02,12,03,995.97
2024,03,02,12,04,995.97
2024,03,02,12,05,995.97
2024,03,02,12,06,996.04
2024,03,02,12,07,996.17
2024,03,02,12,08,996.11
2024,03,02,12,09,996.14
2024,03,02,12,10,996.01
2024,03,02,12,11,995.97
2024,03,02,12,12,996.04
2024,03,02,12,13,995.97
2024,03,02,12,14,996.07
2024,03,02,12,15,996.01
2024,03,02,12,16,996.11
2024,03,02,12,17,996.04
2024,03,02,12,18,996.14
2024,03,02,12,19,996.07
2024,03,02,12,20,996.11
2024,03,02,12,21,996.04
2024,03,02,12,22,996.11
2024,03,02,12,23,996.07
2024,03,02,12,24,996.04
2024,03,02,12,25,996.01
2024,03,02,12,26,995.97
2024,03,02,12,27,995.97
2024,03,02,12,28,996.07
2024,03,02,12,29,996.04
2024,03,02,12,30,996.23
2024,03,02,12,31,996.04
2024,03,02,12,32,996.14
2024,03,02,12,33,996.11
2024,03,02,12,34,995.95
2024,03,02,12,35,996.14
2024,03,02,12,36,996.07
2024,03,02,12,37,996.04
2024,03,02,12,38,996.14
2024,03,02,12,39,996.11
2024,03,02,12,40,996.14
2024,03,02,12,41,996.11
2024,03,02,12,42,996.01
2024,03,02,12,43,996.11
2024,03,02,12,44,996.11
2024,03,02,12,45,996.17
2024,03,02,12,46,996.21
2024,03,02,12,47,996.21
2024,03,02,12,48,996.21
2024,03,02,12,49,996.24
2024,03,02,12,50,996.24
2024,03,02,12,51,996.31
2024,03,02,12,52,996.28
2024,03,02,12,53,996.21
2024,03,02,12,54,996.17
2024,03,02,12,55,996.21
2024,03,02,12,56,996.24
2024,03,02,12,57,996.14
2024,03,02,12,58,996.24
2024,03,02,12,59,996.17
2024,03,02,13,00,996.21
2024,03,02,13,01,996.21
2024,03,02,13,02,996.21
2024,03,02,13,03,996.21
2024,03,02,13,04,996.11
2024,03,02,13,05,996.21
2024,03,02,13,06,996.17
2024,03,02,13,07,996.24
2024,03,02,13,08,996.17
2024,03,02,13,09,996.17
2024,03,02,13,10,996.24
2024,03,02,13,11,996.17
2024,03,02,13,12,996.21
2024,03,02,13,13,996.17
2024,03,02,13,14,996.14
2024,03,02,13,15,996.17
2024,03,02,13,16,996.11
2024,03,02,13,17,996.07
2024,03,02,13,18,996.14
2024,03,02,13,19,996.11
2024,03,02,13,20,996.04
2024,03,02,13,21,996.21
2024,03,02,13,22,996.21
2024,03,02,13,23,996.14
2024,03,02,13,24,996.14
2024,03,02,13,25,996.24
2024,03,02,13,26,996.28
2024,03,02,13,27,996.11
2024,03,02,13,28,996.14
2024,03,02,13,29,996.17
2024,03,02,13,30,996.21
2024,03,02,13,31,996.21
2024,03,02,13,32,996.14
2024,03,02,13,33,996.14
2024,03,02,13,34,996.14
2024,03,02,13,35,996.17
2024,03,02,13,36,996.34
2024,03,02,13,37,996.22
2024,03,02,13,38,996.38
2024,03,02,13,39,996.28
2024,03,02,13,40,996.31
2024,03,02,13,41,996.31
2024,03,02,13,42,996.34
2024,03,02,13,43,996.31
2024,03,02,13,44,996.31
2024,03,02,13,45,996.28
2024,03,02,13,46,996.34
2024,03,02,13,47,996.38
2024,03,02,13,48,996.31
2024,03,02,13,49,996.31
2024,03,02,13,50,996.34
2024,03,02,13,51,996.38
2024,03,02,13,52,996.45
2024,03,02,13,53,996.38
2024,03,02,13,54,996.48
2024,03,02,13,55,996.45
2024,03,02,13,56,996.48
2024,03,02,13,57,996.48
2024,03,02,13,58,996.45
2024,03,02,13,59,996.48
2024,03,02,14,00,996.48
2024,03,02,14,01,996.48
2024,03,02,14,02,996.45
2024,03,02,14,03,996.55
2024,03,02,14,04,996.51
2024,03,02,14,05,996.55
2024,03,02,14,06,996.61
2024,03,02,14,07,996.48
2024,03,02,14,08,996.55
2024,03,02,14,09,996.55
2024,03,02,14,10,996.55
2024,03,02,14,11,996.48
2024,03,02,14,12,996.55
2024,03,02,14,13,996.55
2024,03,02,14,14,996.51
2024,03,02,14,15,996.55
2024,03,02,14,16,996.48
2024,03,02,14,17,996.55
2024,03,02,14,18,996.55
2024,03,02,14,19,996.55
2024,03,02,14,20,996.51
2024,03,02,14,21,996.58
2024,03,02,14,22,996.55
2024,03,02,14,23,996.51
2024,03,02,14,24,996.55
2024,03,02,14,25,996.61
2024,03,02,14,26,996.58
2024,03,02,14,27,996.55
2024,03,02,14,28,996.61
2024,03,02,14,29,996.72
2024,03,02,14,30,996.65
2024,03,02,14,31,996.68
2024,03,02,14,32,996.75
2024,03,02,14,33,996.68
2024,03,02,14,34,996.78
2024,03,02,14,35,996.82
2024,03,02,14,36,996.78
2024,03,02,14,37,996.85
2024,03,02,14,38,996.78
2024,03,02,14,39,996.82
2024,03,02,14,40,996.85
2024,03,02,14,41,996.89
2024,03,02,14,42,996.89
2024,03,02,14,43,996.92
2024,03,02,14,44,996.95
2024,03,02,14,45,996.95
2024,03,02,14,46,996.99
2024,03,02,14,47,997.05
2024,03,02,14,48,997.12
2024,03,02,14,49,997.02
2024,03,02,14,50,997.02
2024,03,02,14,51,997.09
2024,03,02,14,52,997.09
2024,03,02,14,53,997.12
2024,03,02,14,54,997.16
2024,03,02,14,55,997.26
2024,03,02,14,56,997.16
2024,03,02,14,57,997.16
2024,03,02,14,58,997.16
2024,03,02,14,59,997.16
2024,03,02,15,00,997.26
2024,03,02,15,01,997.16
2024,03,02,15,02,997.26
2024,03,02,15,03,997.22
2024,03,02,15,04,997.26
2024,03,02,15,05,997.36
2024,03,02,15,06,997.36
2024,03,02,15,07,997.29
2024,03,02,15,08,997.33
2024,03,02,15,09,997.36
2024,03,02,15,10,997.43
2024,03,02,15,11,997.43
2024,03,02,15,12,997.39
2024,03,02,15,13,997.46
2024,03,02,15,14,997.43
2024,03,02,15,15,997.43
2024,03,02,15,16,997.36
2024,03,02,15,17,997.39
2024,03,02,15,18,997.50
2024,03,02,15,19,997.43
2024,03,02,15,20,997.53
2024,03,02,15,21,997.46
2024,03,02,15,22,997.50
2024,03,02,15,23,997.50
2024,03,02,15,24,997.46
2024,03,02,15,25,997.53
2024,03,02,15,26,997.60
2024,03,02,15,27,997.53
2024,03,02,15,28,997.50
2024,03,02,15,29,997.53
2024,03,02,15,30,997.53
2024,03,02,15,31,997.56
2024,03,02,15,32,997.46
2024,03,02,15,33,997.50
2024,03,02,15,34,997.46
2024,03,02,15,35,997.60
2024,03,02,15,36,997.56
2024,03,02,15,37,997.63
2024,03,02,15,38,997.60
2024,03,02,15,39,997.63
2024,03,02,15,40,997.63
2024,03,02,15,41,997.63
2024,03,02,15,42,997.60
2024,03,02,15,43,997.66
2024,03,02,15,44,997.60
2024,03,02,15,45,997.70
2024,03,02,15,46,997.60
2024,03,02,15,47,997.63
2024,03,02,15,48,997.70
2024,03,02,15,49,997.77
2024,03,02,15,50,997.73
2024,03,02,15,51,997.71
2024,03,02,15,52,997.83
2024,03,02,15,53,997.83
2024,03,02,15,54,997.87
2024,03,02,15,55,997.94
2024,03,02,15,56,997.94
2024,03,02,15,57,997.90
2024,03,02,15,58,997.87
2024,03,02,15,59,997.94
2024,03,02,16,00,997.97
2024,03,02,16,01,998.00
2024,03,02,16,02,997.97
2024,03,02,16,03,997.97
2024,03,02,16,04,997.97
2024,03,02,16,05,998.04
2024,03,02,16,06,998.00
2024,03,02,16,07,998.04
2024,03,02,16,08,997.97
2024,03,02,16,09,997.97
2024,03,02,16,10,998.04
2024,03,02,16,11,998.00
2024,03,02,16,12,998.00
2024,03,02,16,13,997.97
2024,03,02,16,14,998.04
2024,03,02,16,15,998.00
2024,03,02,16,16,998.04
2024,03,02,16,17,997.94
2024,03,02,16,18,998.00
2024,03,02,16,19,997.97
2024,03,02,16,20,998.00
2024,03,02,16,21,998.00
2024,03,02,16,22,998.00
2024,03,02,16,23,998.04
2024,03,02,16,24,998.10
2024,03,02,16,25,998.07
2024,03,02,16,26,998.04
2024,03,02,16,27,998.10
2024,03,02,16,28,998.00
2024,03,02,16,29,998.04
2024,03,02,16,30,998.04
2024,03,02,16,31,998.07
2024,03,02,16,32,998.14
2024,03,02,16,33,998.07
2024,03,02,16,34,998.07
2024,03,02,16,35,998.10
2024,03,02,16,36,998.10